SECOR 4 (EGRS 4)

Satellite information

Favourite Embed

Satellite Type and Status

PAYLOADIN ORBIT

Key statistics

Satellite SECOR 4 (EGRS 4) at a glance.

Uptime

22123

Days in orbit

Revolutions

≈ 12.9

Per day

Orbit

SSO

Sun Synchronous Orbit

Inclination

90.3

Latest

Satellite identification and parameters

Extended collection of information and parameters for SECOR 4 (EGRS 4).

Object identification

Identified? True

Debris? False

Object name: SECOR 4 (EGRS 4)

International designator: 1965-027B

Object number (NORAD): 1315

Object ID (CCSDS): 1315

Country: UNITED STATES OF AMERICA (US)

Current information (Y/N): Y

RCS size: MEDIUM

Orbital parameters

Period: 111.398 minutes

Inclination: 90.2503 deg

SMA: 7669.118 km

Apoapsis: 1316.191 km

Periapsis: 1265.774 km

RAAN: 10.3274 deg

Eccentricy: 0.00328701

Argument of periapsis: 87.0993 deg

Mean anomaly: 86.1948 deg

Mean motion: 12.92660972 rev/day

Mean motion (dot): 0.00000082 rev/day2

B* drag term: 0.00027489672 1/REarth

Two-line elements (TLE)

Creation date: Oct. 28, 2025, 2:18 a.m.

Reference frame: TEME

Reference center: EARTH

Epoch: Oct. 27, 2025, 11:49 p.m. UTC

TLE line 0: 0 SECOR 4 (EGRS 4)

TLE line 1: 1 01315U 65027B 25300.99300565 .00000082 00000-0 27490-3 0 9992

TLE line 2: 2 01315 90.2503 10.3274 0032870 87.0993 86.1948 12.92660972856924

Live tracking on map

Real-time ground track for satellite SECOR 4 (EGRS 4).

In-orbit conjunctions

A list of the most updated potential collisions computed for object SECOR 4 (EGRS 4).

Target Orbit TCA Probability of collision Miss distance Type
DELTA 1 DEB MEO 2024-12-19 10:00:23 0.0001821489 992.0 (m) DEBRIS
OPS 4682 DEB SSO 2024-09-14 19:49:00 0.0001066161 98.0 (m) DEBRIS

Associated space launch

Experimental satellite equipped with a nuclear power system and a cesium ion engine.

SECOR 4 (EGRS 4) was lifted into orbit during the mission ‘Atlas SLV-3 Agena D | SNAPSHOT-1’, on board a Atlas SLV-3 Agena D space rocket.

The launch took place on April 3, 1965, 9:25 p.m. from Space Launch Complex 4E.

For more information about the launch, click the button.

Launch to space Atlas SLV-3 Agena D | SNAPSHOT-1
Atlas SLV-3 Agena D | SNAPSHOT-1

Agency: N/A

Status: Launch Successful

Launch date: April 3, 1965, 9:25 p.m. UTC

Rocket: Atlas SLV-3 Agena D

Launch pad: Space Launch Complex 4E

Location: Vandenberg SFB, CA, USA

...

Latest news about this satellite

There are no fresh news available about this satellite. Check back as we update our databases every day.


Newsletter sign-up

Weekly statistics, charts and insights to help you stay on top of the space industry.